Forside
METAR-TAF:

METAR-TAF

Lufthavne :

Sparta, Wisconsin, USA

Breddekreds: 43-57-30N, længdekreds: 090-44-16W, højde: 255 m

Aktuelle vejr

Denne rapport blev lavet for 16 minutter siden, kl. 01:15 UTC
Vind stille
Temperatur 24°C
Fugtighed 69%
Tryk 1011 hPa
Sigt: 16.1 km
skyfri

METAR: KCMY 250115Z AUTO 00000KT 10SM CLR 24/18 A2986 RMK AO2 T02350178

Tid: 20:31 (01:31 UTC)


TAF: fraværende

Vejrobservationer og prognoser fra mere end 4000 lufthavne (METAR og TAF).

De gule og røde prikker repræsenterer de meteorologiske stationer.

Flyt musen over at se navnet på stationen.

Så klik over at se vejr observationer og prognoser.

At skifte det kort: Klik på de grønne knapper med et sort kors for at zoome ind; på den grønne knap med en bindestreg for at zoome ud; eller på de grønne pile for tilstødende kort.


METAR-TAF: